STERKH 2

Satellite information

Favourite Embed

Satellite Type and Status

PAYLOADIN ORBIT

Key statistics

Satellite STERKH 2 at a glance.

Uptime

5932

Days in orbit

Revolutions

≈ 14.2

Per day

Orbit

SSO

Sun Synchronous Orbit

Inclination

98.7

Latest

Satellite identification and parameters

Extended collection of information and parameters for STERKH 2.

Object identification

Identified? True

Debris? False

Object name: STERKH 2

International designator: 2009-049B

Object number (NORAD): 35866

Object ID (CCSDS): 35866

Country: COMMONWEALTH OF INDEPENDENT STATES (CIS)

Current information (Y/N): Y

RCS size: MEDIUM

Orbital parameters

Period: 101.13 minutes

Inclination: 98.6896 deg

SMA: 7190.319 km

Apoapsis: 815.177 km

Periapsis: 809.192 km

RAAN: 303.9274 deg

Eccentricy: 0.0004162

Argument of periapsis: 99.0826 deg

Mean anomaly: 261.0824 deg

Mean motion: 14.23903339 rev/day

Mean motion (dot): 0.00000257 rev/day2

B* drag term: 0.00013137 1/REarth

Two-line elements (TLE)

Creation date: Dec. 12, 2025, 7:06 a.m.

Reference frame: TEME

Reference center: EARTH

Epoch: Dec. 11, 2025, 8:28 p.m. UTC

TLE line 0: 0 STERKH 2

TLE line 1: 1 35866U 09049B 25345.85342507 .00000257 00000-0 13137-3 0 9995

TLE line 2: 2 35866 98.6896 303.9274 0004162 99.0826 261.0824 14.23903339842982

Live tracking on map

Real-time ground track for satellite STERKH 2.

In-orbit conjunctions

There are no conjunctions computed for STERKH 2, at the moment. Check back to stay up to date, as we update our databases every day.

Go to all conjunctions

Associated space launch

Russian meteorology satellite

STERKH 2 was lifted into orbit during the mission ‘Soyuz 2.1b/Fregat | Meteor-M 1’, on board a Soyuz 2.1b/Fregat space rocket.

The launch took place on Sept. 17, 2009, 3:55 p.m. from 31/6.

For more information about the launch, click the button.

Launch to space Soyuz 2.1b/Fregat | Meteor-M 1
Soyuz 2.1b/Fregat | Meteor-M 1

Agency: N/A

Status: Launch Successful

Launch date: Sept. 17, 2009, 3:55 p.m. UTC

Rocket: Soyuz 2.1b/Fregat

Launch pad: 31/6

Location: Baikonur Cosmodrome, Republic of Kazakhstan

...

Latest news about this satellite

There are no fresh news available about this satellite. Check back as we update our databases every day.


Newsletter sign-up

Weekly statistics, charts and insights to help you stay on top of the space industry.